Location: Gönnheim
(49.4488°N, 8.2383°E)
Time: 19:09:54
(UTC+00:00)

Lacrosse 5 rocket - Pass Details

Date: 19 May 2025
Orbit: 419 x 515 km, 57.0° (Epoch: 20 June)

Event Time Altitude Azimuth Distance (km) Brightness Sun altitude
Rises 21:22:27 0° 297° (WNW) 2,476 5.7 -15.6°
Reaches altitude 10° 21:24:53 10° 283° (WNW) 1,579 4.2 -15.7°
Maximum altitude 21:27:43 23° 229° (SW) 992 2.5 -16.0°
Enters shadow 21:28:29 21° 209° (SSW) 1,041 2.4 -16.0°
